Wind_Speed
22 22 22 20 18 17 17 17 17 16 16 18 18 17 15 15 14 14 14 14 15 14 15 15 15 16 17 18 19 19 20 21 22 22 23 23 24 24 25 26 26 27 27 27
21 21 21 20 18 18 18 17 17 17 17 19 19 18 17 16 16 16 16 17 17 18 18 18 18 19 20 20 21 22 23 23 24 25 26 26 26 27 28 28 28 29 29 29
19 18 19 19 17 17 17 17 17 17 17 19 19 19 20 20 19 19 19 20 20 21 21 21 21 21 22 23 24 25 26 26 27 28 28 28 29 30 30 31 31 30 31 31
19 19 18 17 16 16 17 17 17 18 18 19 19 19 21 21 22 21 21 22 23 24 25 25 25 25 25 25 26 27 28 28 29 30 31 31 31 32 32 33 33 33 34 34
20 19 19 20 18 18 19 19 18 18 19 19 19 20 21 22 23 23 23 24 24 25 26 27 28 28 28 28 29 29 30 31 31 32 33 34 33 33 34 34 34 35 35 34
21 21 20 21 20 20 20 21 20 20 20 20 20 21 22 22 23 24 25 26 27 28 28 29 30 31 31 31 32 32 32 33 34 35 35 36 36 36 35 35 35 35 36 36
22 22 21 21 20 19 20 20 20 20 21 21 22 23 23 24 25 25 27 28 30 31 31 31 32 33 33 34 34 34 35 35 36 37 37 38 38 38 37 38 38 37 38 38
21 20 21 21 19 20 21 21 21 21 22 22 22 23 24 24 25 27 28 29 30 31 32 33 34 35 35 36 37 37 37 38 38 39 39 39 39 39 40 40 40 40 41 40
19 20 20 20 20 21 21 22 22 22 22 23 23 24 24 25 26 26 29 30 31 33 33 34 36 37 37 37 37 37 38 38 39 40 41 42 41 41 41 42 42 43 44 44
19 20 20 21 22 22 22 22 23 23 24 24 24 25 25 26 26 27 28 30 31 32 33 34 35 36 36 36 37 38 39 40 41 42 42 42 42 43 43 43 44 44 45 46
21 21 21 22 23 24 24 24 25 25 24 24 25 25 26 26 27 28 29 30 30 32 34 34 35 36 37 38 38 39 40 42 43 43 42 42 42 43 44 45 46 47 48 49
22 22 23 23 24 24 25 25 26 26 26 26 26 27 27 28 28 29 29 30 30 31 32 32 33 34 36 37 38 39 41 43 43 43 43 44 44 46 46 47 48 50 51 52
21 22 23 23 24 24 25 26 27 27 27 26 27 27 28 28 28 29 29 29 30 31 31 32 34 35 37 38 39 40 41 43 44 44 45 46 47 48 49 50 50 52 53 54
20 20 21 22 23 24 25 26 26 27 27 27 27 28 28 29 29 29 29 29 30 31 32 32 34 35 36 38 39 41 42 42 44 45 47 48 49 50 51 52 53 54 56 57
19 19 20 21 22 23 24 25 26 26 26 26 27 28 29 29 30 30 30 31 31 32 33 34 36 36 37 38 40 41 42 43 44 45 47 49 50 52 53 54 55 57 58 59
18 18 18 19 20 21 22 23 24 25 26 26 27 28 29 31 31 30 31 31 32 34 35 36 37 38 38 40 41 42 43 44 45 47 48 50 52 53 55 56 57 58 58 59
18 19 19 20 20 21 22 23 25 27 27 27 28 30 30 31 31 31 32 33 34 36 37 38 39 40 41 42 43 44 46 47 48 50 51 53 54 55 56 57 57 58 58 58
20 20 21 21 23 24 24 26 27 28 28 29 31 31 32 32 33 34 35 36 37 38 39 40 41 42 44 45 46 47 49 50 52 53 54 55 55 56 56 57 57 57 56 56
21 22 23 23 24 25 26 27 28 29 30 32 32 33 34 35 36 37 38 39 40 41 41 43 44 45 46 47 49 50 51 52 53 54 54 54 55 55 55 54 54 54 53 52
23 24 25 26 26 27 28 29 30 31 33 34 34 35 36 38 39 40 41 42 43 43 45 46 47 48 48 49 50 51 52 53 53 53 53 53 52 52 52 51 50 49 48 47
25 26 26 27 29 30 31 31 32 33 35 36 37 38 39 40 40 41 43 44 44 45 46 47 48 48 48 49 49 50 51 51 50 50 50 50 50 49 48 48 47 45 45 44
27 28 29 30 31 32 33 34 35 37 38 39 40 40 40 41 42 43 44 45 45 46 46 47 47 47 47 48 49 49 48 48 48 47 47 46 46 45 44 43 42 42 41 39
29 30 32 32 34 35 36 37 38 39 40 41 41 42 42 43 44 45 45 45 46 46 45 46 46 46 46 46 46 45 45 44 44 44 43 43 42 41 40 39 38 37 36 35
31 32 34 35 36 37 38 39 40 40 41 42 43 43 43 44 44 45 45 45 44 44 44 43 43 44 44 43 42 41 41 41 41 40 39 38 38 37 36 35 33 33 31 30
32 33 35 36 37 38 38 39 40 41 41 42 42 43 43 43 44 43 43 42 42 41 41 41 41 40 40 39 39 38 38 38 37 36 35 35 34 33 32 30 29 28 26 24
33 34 35 36 37 38 39 39 40 41 41 41 41 41 41 40 40 40 40 39 39 39 39 38 38 37 36 35 35 35 34 34 33 32 31 30 29 28 26 25 24 22 20 18
34 34 35 36 37 38 38 38 38 38 38 38 37 37 37 36 36 36 37 37 36 36 35 35 34 33 32 31 31 30 30 29 28 27 26 25 23 22 20 19 17 17 16 14
Wind_Direction
240 247 252 252 249 250 253 255 256 258 261 259 261 260 260 262 262 260 260 260 259 258 256 254 253 253 252 252 253 252 252 252 252 254 256 260 263 266 269 272 274 276 279 281
245 249 247 246 246 249 251 254 255 254 254 254 257 257 256 256 258 260 260 260 260 261 260 259 259 257 257 257 257 258 258 258 258 260 261 263 266 268 270 272 274 277 280 281
246 249 244 245 246 250 250 252 251 251 251 252 253 255 255 254 255 258 258 259 259 261 261 260 260 260 261 260 260 260 261 262 262 264 265 266 269 270 271 273 275 277 279 280
242 244 243 245 248 248 249 250 252 253 252 252 252 255 255 254 255 256 258 258 258 259 260 259 260 261 262 263 262 262 263 264 265 266 268 270 270 271 272 274 276 278 280 282
239 243 245 248 247 248 250 253 255 256 255 254 253 255 255 254 255 257 259 260 260 259 259 259 261 262 263 264 263 264 265 265 266 267 269 271 271 272 274 276 279 281 282 283
242 244 245 247 248 250 253 255 255 257 256 256 256 256 257 257 258 259 258 258 258 259 260 261 261 263 264 264 264 265 267 268 269 270 271 271 272 274 275 277 279 282 283 284
243 244 245 246 247 249 250 250 253 255 257 259 260 259 260 259 259 259 259 257 258 259 260 262 263 265 266 265 264 265 267 268 269 270 271 272 274 275 276 278 280 281 283 284
241 240 244 244 249 248 249 252 254 256 258 261 262 263 262 261 261 260 260 259 259 259 261 263 264 264 264 264 265 267 267 267 269 270 271 273 275 276 278 279 280 281 283 284
237 240 244 246 249 251 252 255 257 259 260 263 265 265 263 263 262 262 262 261 261 261 262 264 264 264 266 267 266 266 268 270 271 272 272 273 274 276 279 280 281 283 284 285
239 243 248 251 253 255 256 258 260 261 263 265 267 267 268 267 264 265 265 265 264 263 264 266 267 266 267 268 267 267 270 272 272 274 274 274 275 277 278 280 281 282 283 285
245 249 253 255 256 258 259 261 263 264 266 267 268 269 269 269 269 268 268 268 267 267 266 266 267 267 268 269 270 271 272 273 273 275 277 276 278 280 281 281 283 284 285 287
249 251 255 258 260 261 261 262 264 265 266 268 270 270 272 273 273 272 270 269 270 270 271 271 271 271 273 275 274 274 275 277 277 279 282 282 282 283 283 283 284 286 286 288
254 256 259 262 261 263 264 265 265 264 266 268 270 272 273 273 272 272 272 273 273 274 274 275 276 275 276 277 277 278 281 281 281 281 282 283 284 284 284 285 287 287 288 288
256 259 262 262 262 265 265 265 266 267 269 269 270 272 273 273 273 273 273 275 276 276 278 280 280 280 280 281 282 283 283 284 283 283 284 285 286 286 287 288 288 289 289 289
257 261 263 263 263 264 265 266 268 269 270 270 270 272 273 274 274 275 275 276 278 279 280 282 282 283 283 283 284 284 285 286 286 287 287 287 288 288 288 289 290 290 290 290
260 263 265 265 267 267 268 268 269 269 271 274 276 276 276 276 276 276 278 279 280 281 282 283 284 284 285 285 286 287 287 288 288 288 288 289 289 289 290 290 291 291 291 291
264 266 268 270 273 274 273 272 272 274 275 277 279 280 278 277 278 279 280 282 282 283 285 286 287 287 288 288 289 289 290 290 290 290 290 290 290 291 291 291 292 292 293 293
267 269 272 272 273 275 274 275 276 276 277 279 278 277 278 280 283 284 284 285 286 287 288 289 290 290 291 291 291 291 291 291 291 291 292 292 292 292 292 293 293 293 293 293
271 272 274 275 277 277 276 275 276 276 277 278 279 280 280 282 283 285 285 286 287 288 288 289 290 291 291 291 291 291 291 291 292 292 292 292 293 293 293 293 294 294 295 295
276 278 278 279 278 277 277 277 278 278 280 281 281 282 284 286 286 285 286 287 288 289 290 290 291 291 291 291 292 292 292 293 293 293 293 293 294 294 294 295 295 295 295 296
277 278 278 277 278 278 278 278 280 282 283 284 285 285 287 289 289 289 290 290 290 291 292 292 292 293 293 293 293 293 294 294 293 294 294 294 295 295 295 295 296 296 297 297
277 277 277 276 275 277 279 281 284 285 286 287 287 288 289 290 291 292 292 292 292 292 293 293 293 293 294 294 294 294 294 294 294 295 295 295 296 296 296 296 297 298 298 298
276 277 277 278 279 280 282 284 286 286 287 288 289 290 290 291 292 293 294 294 294 294 294 294 293 293 293 294 294 294 294 295 295 295 296 296 296 297 297 297 298 299 299 299
277 278 279 280 282 284 285 286 287 287 288 289 290 290 292 293 293 294 295 294 294 294 293 294 294 294 295 295 295 295 295 295 296 296 296 297 297 298 298 299 299 300 300 299
279 280 280 282 284 285 287 287 288 289 290 291 291 292 293 293 294 294 294 295 295 294 294 294 295 296 296 296 296 296 297 297 296 297 297 297 298 298 299 299 300 301 300 298
282 282 283 284 285 287 289 290 291 291 292 293 293 293 293 293 293 294 294 294 295 295 296 296 296 296 296 297 297 298 298 298 298 298 298 299 299 300 300 301 302 301 300 299
285 285 286 286 288 289 290 292 292 293 293 293 293 293 294 294 295 295 295 295 296 297 297 298 298 297 298 298 299 300 301 302 301 300 301 301 302 302 303 305 305 304 303 300
Height
5828 5829 5830 5831 5832 5832 5833 5834 5836 5837 5836 5835 5834 5834 5835 5835 5835 5836 5836 5837 5837 5838 5839 5840 5840 5841 5842 5843 5844 5844 5845 5846 5846 5846 5846 5846 5845 5845 5844 5844 5843 5842 5840 5839
5822 5823 5823 5825 5826 5827 5828 5829 5830 5830 5831 5830 5829 5829 5830 5831 5831 5832 5832 5832 5833 5834 5834 5835 5836 5836 5837 5838 5838 5839 5839 5840 5840 5840 5840 5840 5839 5838 5838 5837 5836 5834 5833 5831
5816 5817 5818 5820 5821 5822 5823 5824 5824 5825 5826 5824 5825 5825 5825 5826 5827 5827 5828 5828 5828 5829 5829 5830 5831 5831 5832 5832 5833 5833 5834 5834 5834 5833 5833 5833 5832 5831 5830 5829 5828 5826 5824 5822
5810 5812 5814 5817 5815 5816 5817 5818 5819 5819 5819 5819 5819 5820 5820 5820 5821 5822 5822 5822 5823 5823 5824 5824 5825 5825 5825 5826 5826 5826 5827 5827 5827 5826 5826 5825 5824 5823 5821 5820 5819 5817 5815 5813
5805 5807 5808 5810 5810 5811 5812 5813 5813 5813 5813 5814 5814 5814 5814 5815 5815 5816 5816 5816 5817 5817 5817 5818 5818 5818 5818 5819 5819 5819 5819 5819 5819 5818 5817 5816 5815 5814 5813 5811 5810 5807 5806 5804
5799 5801 5803 5805 5804 5804 5807 5806 5807 5807 5807 5808 5808 5809 5809 5809 5809 5809 5809 5810 5810 5810 5810 5811 5811 5811 5811 5811 5811 5811 5810 5810 5810 5809 5808 5807 5806 5805 5803 5801 5800 5798 5796 5794
5792 5794 5796 5797 5797 5799 5801 5801 5800 5800 5801 5801 5801 5802 5802 5802 5802 5802 5802 5802 5802 5803 5803 5803 5803 5803 5803 5802 5802 5802 5801 5801 5801 5800 5798 5797 5796 5794 5793 5791 5789 5787 5785 5783
5786 5788 5791 5789 5791 5792 5793 5793 5793 5794 5794 5794 5794 5794 5794 5794 5795 5794 5794 5794 5794 5795 5795 5795 5794 5794 5794 5793 5793 5792 5791 5791 5790 5789 5788 5786 5785 5783 5782 5780 5778 5776 5773 5771
5780 5783 5782 5783 5784 5785 5786 5786 5786 5787 5788 5788 5787 5787 5787 5787 5787 5787 5787 5787 5786 5786 5786 5786 5785 5785 5784 5783 5782 5782 5781 5780 5779 5777 5776 5775 5774 5772 5770 5768 5766 5763 5761 5759
5773 5774 5775 5777 5778 5779 5780 5780 5780 5780 5781 5781 5780 5780 5780 5779 5779 5779 5779 5778 5778 5778 5777 5777 5776 5775 5774 5773 5773 5772 5771 5770 5768 5766 5764 5763 5762 5760 5758 5756 5753 5751 5748 5745
5767 5769 5770 5770 5771 5772 5772 5772 5773 5773 5773 5773 5773 5773 5772 5772 5771 5771 5771 5770 5769 5769 5768 5767 5767 5766 5765 5764 5763 5762 5760 5758 5756 5755 5753 5751 5749 5747 5745 5742 5740 5737 5734 5730
5761 5763 5764 5764 5764 5765 5765 5765 5765 5765 5765 5765 5765 5765 5764 5764 5763 5762 5762 5761 5761 5760 5759 5758 5757 5756 5755 5754 5753 5751 5749 5747 5745 5743 5741 5739 5737 5735 5732 5729 5726 5722 5719 5716
5755 5756 5757 5757 5757 5757 5757 5757 5757 5757 5757 5757 5757 5756 5756 5755 5755 5754 5753 5753 5752 5751 5750 5749 5748 5747 5745 5744 5742 5740 5738 5736 5733 5731 5729 5726 5724 5721 5718 5715 5712 5708 5704 5700
5749 5750 5750 5750 5750 5750 5750 5750 5749 5749 5749 5749 5748 5748 5748 5747 5746 5745 5745 5744 5743 5742 5741 5740 5738 5737 5735 5733 5731 5729 5727 5724 5721 5718 5716 5713 5710 5707 5703 5700 5696 5691 5687 5683
5743 5743 5744 5743 5743 5743 5743 5742 5742 5742 5742 5741 5740 5740 5739 5738 5738 5737 5736 5735 5734 5733 5731 5730 5728 5726 5724 5722 5720 5717 5714 5712 5709 5706 5703 5699 5695 5692 5687 5683 5679 5674 5670 5665
5737 5737 5737 5737 5737 5736 5736 5736 5735 5735 5735 5734 5733 5732 5731 5730 5729 5728 5727 5726 5725 5723 5722 5720 5718 5716 5713 5711 5708 5705 5702 5699 5695 5692 5688 5684 5680 5676 5671 5666 5661 5656 5652 5647
5731 5731 5731 5731 5731 5730 5729 5729 5728 5728 5727 5726 5725 5724 5723 5722 5721 5719 5718 5716 5715 5713 5711 5709 5707 5704 5701 5698 5695 5692 5688 5684 5681 5677 5673 5669 5664 5659 5654 5649 5644 5639 5635 5629
5725 5725 5725 5724 5724 5723 5722 5722 5721 5720 5719 5718 5717 5716 5714 5713 5711 5710 5708 5706 5704 5702 5700 5697 5694 5691 5688 5685 5681 5678 5674 5670 5666 5661 5657 5652 5647 5642 5637 5632 5627 5622 5618 5612
5718 5718 5718 5717 5717 5716 5715 5714 5713 5712 5711 5709 5708 5707 5705 5703 5701 5699 5697 5695 5693 5690 5688 5685 5681 5678 5675 5671 5667 5663 5659 5654 5650 5645 5640 5636 5631 5626 5621 5616 5611 5606 5601 5596
5711 5711 5710 5710 5709 5708 5707 5706 5704 5703 5701 5700 5698 5697 5694 5692 5690 5688 5685 5683 5680 5677 5674 5671 5667 5664 5660 5656 5651 5647 5643 5638 5634 5629 5624 5619 5615 5610 5605 5600 5595 5590 5585 5581
5704 5703 5703 5701 5700 5699 5698 5697 5695 5694 5692 5690 5688 5686 5683 5681 5678 5675 5673 5670 5667 5664 5660 5656 5652 5649 5644 5640 5636 5631 5627 5622 5618 5613 5608 5604 5599 5595 5590 5585 5581 5576 5572 5567
5696 5695 5694 5693 5691 5690 5688 5687 5685 5684 5681 5679 5677 5674 5671 5668 5666 5662 5659 5656 5653 5649 5645 5641 5637 5633 5629 5625 5620 5616 5612 5607 5603 5598 5594 5589 5585 5581 5576 5572 5568 5563 5559 5555
5687 5686 5685 5683 5682 5680 5678 5676 5674 5672 5669 5667 5664 5661 5658 5655 5652 5649 5645 5642 5638 5634 5631 5627 5623 5619 5614 5610 5606 5601 5597 5593 5589 5585 5580 5576 5572 5568 5564 5560 5556 5552 5548 5544
5678 5676 5675 5673 5671 5669 5667 5665 5662 5659 5657 5654 5651 5648 5645 5642 5639 5635 5631 5628 5624 5620 5617 5613 5609 5605 5601 5596 5592 5588 5584 5580 5576 5572 5568 5564 5560 5556 5552 5549 5545 5541 5538 5534
5668 5666 5664 5662 5660 5658 5655 5653 5650 5647 5644 5641 5638 5635 5632 5629 5626 5622 5618 5614 5611 5607 5603 5600 5596 5592 5588 5584 5580 5576 5572 5568 5565 5561 5557 5553 5549 5546 5542 5539 5535 5532 5529 5526
5657 5655 5653 5651 5648 5646 5643 5640 5638 5634 5631 5628 5625 5622 5619 5616 5613 5609 5606 5602 5598 5595 5591 5587 5583 5580 5576 5572 5569 5565 5561 5557 5554 5550 5547 5543 5540 5536 5533 5530 5527 5524 5522 5519
5646 5644 5641 5639 5636 5634 5631 5628 5625 5622 5619 5616 5613 5610 5607 5604 5601 5597 5594 5590 5587 5583 5579 5576 5572 5569 5566 5562 5559 5555 5552 5548 5545 5541 5538 5535 5532 5529 5526 5524 5521 5519 5516 5514